Vertical_Velocity
-1 -5 -4 -0 -2 -1 -1 -1 -2 -1 1 -3 -1 -2 -1 -3 -1 1 0 -2 -1 0 3 2 3 5 3 6 7 5 -1 2 1 3 7 4 -2 0 -2 1 -12 1 -5
1 -3 -1 -0 -3 -1 0 -1 -2 -1 -1 -3 -1 -2 -2 1 -0 -0 1 0 -3 -2 0 5 3 2 4 2 3 7 4 3 2 1 3 5 1 6 3 -15 -0 -0 1
-7 -3 -4 2 -1 -1 -1 0 -3 -1 -1 -2 -2 -1 -2 -2 -1 -1 -3 1 2 -1 -2 -2 3 2 8 6 1 4 8 12 3 2 4 3 0 1 2 -1 3 -11 5
-4 -2 -4 1 -1 -2 -2 0 -2 -3 -1 0 -2 -3 -3 0 2 1 0 2 -4 4 -0 -2 0 0 1 5 1 1 4 -2 4 4 3 4 0 -2 1 2 -1 -3 2
-4 -1 -3 -1 -1 -2 -1 1 -1 -1 -0 0 -0 1 -2 -1 -5 -2 0 3 -2 -0 2 1 -0 -4 -7 -6 12 7 5 6 3 -1 4 3 -1 2 2 -1 -1 -3 -4
-3 -3 -1 -1 -1 -2 -1 0 -1 -2 -2 -1 -1 -3 -4 1 -2 -1 -0 4 -0 1 0 3 4 6 4 2 -0 -1 2 3 2 3 2 1 1 1 1 4 -1 3 1
2 -3 -2 -1 -1 -2 -1 -1 1 -1 -1 -1 -0 -1 -2 -0 -0 -1 -0 1 2 -1 1 2 2 2 4 6 2 2 2 0 1 1 3 1 1 1 -1 2 2 4 2
-0 -0 -2 -1 -1 -1 -2 -1 2 0 -2 -2 -0 -1 -0 -0 -0 1 1 0 -1 1 -1 -1 1 1 1 3 3 1 2 1 1 1 1 1 -0 -1 2 1 3 2 -0
-5 0 -0 -0 -0 -0 -0 2 -1 -1 -1 -1 -1 -1 -1 -2 -0 2 4 2 -1 -0 -2 0 -1 1 1 -0 -1 1 1 -2 -0 -2 0 -1 -1 1 3 1 2 1 1
-3 -1 -0 -1 -1 -2 -1 -1 -3 -2 -1 -0 -0 -1 -2 -2 0 0 1 1 1 1 -1 -0 -0 -1 -2 2 -0 0 1 1 -1 0 1 -1 1 -1 -2 1 1 1 0
-2 -2 -0 -3 -0 -1 -2 -1 -1 -1 0 0 0 -1 -1 -3 -1 -1 -0 1 1 -2 -1 0 -3 -2 1 -1 -1 3 1 1 3 1 -0 -1 0 -0 0 -2 -4 -2 -1
-1 -1 -1 -1 -2 -1 -2 -2 0 0 -1 -1 1 3 -0 -1 -1 -0 -1 -2 -1 2 1 -1 0 -0 -1 0 -1 2 0 -1 -1 -0 -0 2 3 -1 -1 -2 2 -3 -1
-2 -3 1 -2 -2 -0 -0 -1 0 -1 0 -1 -1 0 2 3 2 -1 -1 -0 1 -0 -0 -1 -1 -0 1 1 3 -0 -2 1 1 2 -0 -0 0 0 0 -2 -2 -2 -2
-1 -1 -2 -2 -1 -2 -2 -1 -0 -0 -0 -0 3 -0 -2 -1 1 4 -1 2 4 2 2 0 0 -1 -1 -0 0 1 2 2 -0 -2 -1 -1 1 -0 1 2 2 1 2
-1 -1 -2 -1 -1 -1 -0 -1 -2 -2 -2 1 -4 -4 -1 -1 -9 -9 -6 -3 -2 -2 -1 2 2 3 2 1 1 1 1 0 1 -0 0 0 -0 1 1 1 0 3 4
-0 -1 -1 -1 -1 -2 -1 -3 -1 1 1 -2 -4 -3 -5 -5 -1 -3 0 1 -0 1 3 1 0 -1 1 2 1 1 1 -0 -1 -1 -1 -2 -1 0 0 0 1 1 -0
1 -1 -1 -1 -2 -1 -1 -2 3 -3 -3 -2 -3 -3 -3 -1 0 1 -1 -2 1 7 2 -1 -1 -0 -1 -1 -1 0 0 -0 0 0 -1 0 1 1 2 0 -1 -1 -1
-0 -0 0 -0 -2 -1 -2 -1 3 -1 -2 -0 -1 -2 -1 1 -1 -0 -1 6 9 4 -1 -1 -1 -1 -1 0 1 0 0 1 1 0 1 1 -0 -2 -2 -2 -1 -0 0
-1 1 -0 -0 -2 -2 -3 1 -0 -1 -2 -0 0 3 1 0 -2 -0 -1 -1 -3 -1 -2 -0 0 1 -0 1 0 -0 -0 -0 -0 1 2 2 2 3 3 3 3 3 3
-1 1 1 -1 -2 -3 -1 2 -1 -2 -1 -1 -0 0 0 4 3 0 -1 -1 -1 -1 -2 -0 -1 0 0 0 -0 -0 1 1 0 0 1 0 1 3 1 2 3 3 2
-0 1 1 -1 -3 -2 1 -0 -3 -3 -2 -2 -2 -1 -2 -2 -2 -1 -1 -0 -1 -1 -1 -1 -0 1 1 0 0 1 0 -1 -1 -1 -1 -1 0 2 -2 -1 -1 -1 -1
-0 1 -0 -2 -3 -1 1 -1 -3 -3 -2 -2 -1 0 -1 -0 -0 0 -0 -1 -3 -2 -2 -2 -0 0 -0 1 0 1 1 2 1 2 1 1 1 -3 -2 -2 -1 -1 -1
0 0 -1 -3 -2 0 -0 -2 -3 -2 -2 -2 -0 1 -0 -0 -0 0 -0 -1 -1 2 0 0 1 -0 0 1 0 1 1 0 -1 1 1 1 -1 1 -0 -0 -0 -1 -2
0 -1 -1 -2 -1 0 -1 -1 -2 -2 -2 -1 -0 -1 -1 -1 0 0 -1 -1 -2 1 -1 -0 0 -2 -0 0 -0 -0 -0 -0 -1 1 0 -1 -1 -0 -1 -1 -1 -1 -1
-0 -0 -2 -2 -1 -1 -1 -1 -1 -1 -1 -1 -1 -1 -2 -2 -1 -0 -2 -0 -1 1 -0 -1 0 0 -0 -0 0 -1 -1 -1 -1 -1 -0 -1 -1 -1 -1 -1 -1 -0 1
0 -0 -2 -2 -1 -1 -1 -2 -1 -1 -1 -0 -1 -1 -0 -0 -1 -1 -2 -0 -1 -1 1 -0 -0 1 1 1 -0 -1 -1 0 0 1 -0 1 1 1 0 -0 -1 -1 -2
Height
3079 3072 3065 3057 3049 3042 3035 3029 3022 3014 3008 3000 2993 2985 2978 2969 2961 2953 2948 2942 2936 2930 2925 2921 2916 2912 2908 2904 2901 2901 2905 2909 2914 2920 2925 2931 2935 2939 2944 2948 2952 2957 2960
3078 3071 3064 3056 3048 3041 3035 3029 3022 3014 3007 3001 2994 2987 2979 2970 2962 2955 2948 2942 2936 2930 2924 2921 2916 2912 2908 2904 2901 2900 2901 2904 2910 2915 2921 2925 2930 2932 2936 2942 2946 2949 2953
3075 3069 3063 3055 3047 3040 3035 3030 3023 3015 3008 3002 2995 2988 2980 2973 2965 2956 2949 2943 2936 2932 2926 2920 2917 2913 2910 2906 2903 2900 2901 2902 2906 2910 2914 2918 2924 2927 2931 2936 2939 2944 2945
3073 3067 3061 3054 3047 3040 3036 3030 3024 3016 3009 3003 2996 2988 2981 2975 2968 2960 2952 2945 2937 2934 2929 2924 2919 2913 2910 2908 2905 2902 2901 2903 2904 2906 2910 2913 2917 2922 2926 2929 2934 2938 2941
3071 3065 3059 3054 3047 3041 3035 3030 3024 3018 3011 3005 2998 2991 2983 2976 2969 2962 2956 2949 2941 2935 2930 2926 2921 2916 2912 2909 2907 2903 2903 2904 2905 2907 2907 2910 2914 2916 2920 2924 2928 2931 2935
3069 3064 3058 3053 3047 3041 3035 3030 3025 3019 3012 3006 2999 2992 2986 2978 2972 2965 2959 2954 2946 2939 2933 2928 2924 2920 2916 2912 2909 2906 2904 2904 2905 2906 2907 2909 2911 2914 2916 2919 2922 2924 2929
3069 3063 3058 3053 3047 3041 3035 3030 3025 3019 3013 3006 3000 2994 2987 2981 2974 2968 2962 2956 2950 2943 2937 2932 2927 2922 2918 2915 2912 2909 2907 2905 2905 2906 2906 2907 2908 2910 2913 2915 2917 2919 2922
3068 3062 3057 3053 3047 3042 3035 3030 3024 3018 3012 3006 3001 2995 2989 2983 2976 2970 2965 2959 2953 2946 2940 2935 2930 2925 2921 2917 2914 2912 2910 2908 2907 2906 2905 2906 2907 2908 2909 2911 2913 2916 2919
3067 3062 3057 3053 3047 3042 3036 3030 3023 3018 3013 3007 3002 2996 2991 2984 2978 2972 2967 2961 2955 2949 2943 2937 2932 2928 2924 2920 2917 2914 2913 2911 2909 2908 2908 2907 2907 2908 2908 2909 2910 2912 2914
3065 3062 3057 3052 3047 3041 3036 3029 3024 3018 3013 3008 3003 2998 2992 2985 2979 2973 2968 2962 2957 2951 2946 2940 2935 2930 2926 2923 2920 2917 2915 2913 2912 2910 2910 2910 2910 2910 2910 2909 2909 2910 2912
3065 3061 3057 3053 3048 3042 3036 3030 3025 3019 3014 3010 3005 3000 2993 2987 2980 2974 2969 2963 2957 2952 2947 2941 2937 2932 2928 2925 2922 2919 2917 2915 2913 2912 2911 2910 2910 2910 2911 2910 2910 2911 2912
3064 3060 3057 3053 3048 3043 3037 3032 3027 3021 3016 3012 3007 3002 2995 2989 2983 2977 2970 2964 2958 2953 2948 2943 2938 2933 2929 2927 2924 2921 2919 2918 2916 2914 2914 2912 2912 2911 2911 2911 2910 2911 2911
3064 3061 3058 3053 3049 3044 3039 3034 3028 3023 3018 3013 3008 3002 2997 2991 2986 2980 2973 2966 2960 2954 2949 2944 2939 2935 2931 2928 2925 2923 2922 2920 2919 2917 2916 2915 2914 2913 2912 2912 2911 2912 2912
3065 3061 3058 3054 3050 3045 3039 3035 3030 3024 3019 3015 3010 3004 2998 2992 2987 2981 2974 2969 2963 2957 2951 2945 2940 2936 2933 2930 2928 2925 2924 2922 2921 2920 2919 2917 2916 2915 2914 2914 2913 2913 2912
3065 3062 3059 3055 3051 3046 3041 3036 3031 3025 3021 3016 3011 3005 3001 2994 2987 2981 2976 2970 2964 2958 2953 2949 2944 2940 2936 2933 2930 2928 2926 2924 2922 2921 2920 2919 2918 2916 2916 2915 2915 2914 2913
3066 3063 3060 3057 3052 3047 3042 3038 3033 3028 3023 3018 3013 3009 3004 2998 2994 2988 2981 2975 2968 2962 2957 2952 2947 2943 2939 2936 2933 2931 2929 2927 2925 2923 2922 2920 2919 2918 2916 2916 2915 2914 2913
3067 3064 3061 3058 3054 3049 3045 3040 3035 3029 3024 3020 3017 3012 3008 3003 2998 2992 2986 2979 2973 2967 2962 2956 2951 2947 2943 2940 2937 2935 2932 2929 2927 2926 2924 2922 2921 2919 2918 2916 2915 2915 2914
3069 3066 3063 3060 3055 3051 3047 3041 3037 3033 3028 3024 3020 3015 3011 3007 3002 2997 2991 2985 2979 2971 2965 2961 2956 2953 2949 2946 2943 2939 2936 2933 2930 2928 2926 2924 2922 2921 2919 2918 2917 2916 2914
3070 3067 3065 3061 3057 3054 3049 3043 3040 3036 3031 3027 3023 3019 3015 3010 3004 2999 2994 2988 2981 2975 2969 2965 2961 2958 2954 2951 2947 2943 2940 2936 2933 2931 2929 2926 2924 2923 2921 2919 2918 2917 2915
3071 3069 3066 3063 3060 3057 3051 3047 3043 3039 3034 3030 3025 3021 3017 3013 3009 3003 2997 2991 2986 2980 2975 2970 2966 2962 2959 2956 2952 2949 2945 2942 2939 2935 2933 2931 2929 2927 2925 2923 2920 2918 2915
3072 3070 3068 3065 3063 3059 3054 3050 3047 3042 3037 3032 3026 3021 3017 3013 3009 3004 3000 2995 2991 2986 2981 2976 2971 2967 2964 2960 2957 2954 2950 2946 2943 2941 2938 2936 2934 2931 2928 2926 2923 2921 2918
3073 3072 3070 3067 3065 3061 3057 3054 3050 3045 3041 3035 3030 3025 3021 3016 3011 3007 3003 2999 2994 2990 2986 2981 2976 2972 2968 2965 2961 2958 2955 2952 2948 2945 2942 2940 2937 2934 2932 2929 2927 2924 2921
3075 3074 3072 3070 3067 3063 3060 3057 3053 3049 3044 3040 3035 3030 3025 3020 3015 3010 3006 3002 2998 2995 2990 2986 2982 2978 2973 2969 2965 2962 2959 2955 2952 2949 2946 2943 2940 2938 2935 2933 2930 2927 2925
3077 3075 3074 3072 3069 3066 3063 3059 3056 3052 3048 3043 3039 3034 3029 3024 3020 3015 3010 3006 3002 2999 2994 2990 2987 2982 2979 2975 2971 2967 2963 2959 2955 2953 2950 2947 2944 2941 2939 2936 2933 2930 2928
3078 3077 3075 3073 3071 3068 3065 3062 3059 3055 3051 3047 3043 3038 3034 3029 3025 3020 3015 3011 3006 3003 2999 2995 2991 2987 2983 2979 2975 2971 2968 2964 2961 2957 2954 2951 2948 2945 2942 2939 2936 2934 2931
3078 3078 3077 3075 3073 3070 3067 3064 3061 3058 3054 3050 3047 3043 3039 3035 3030 3026 3021 3016 3012 3007 3003 2999 2995 2991 2987 2984 2980 2976 2972 2969 2966 2963 2959 2955 2952 2949 2946 2942 2940 2937 2933